Gainesville, GA

5:45 AM EST on December 06, 2019 (GMT -0500)
Gilmer Memorial

Weather History for KGVL - November, 2019

Change the Weather History Date:

Wednesday, November 20, 2019

  Actual Average Record
Temperature  
Mean Temperature 52 °F 51 °F  
Max Temperature 65 °F 60 °F 78 °F (1943)
Min Temperature 38 °F 42 °F 17 °F (1951)
Degree Days  
Heating Degree Days 13 14  
Month to date heating degree days 322 220  
Since 1 July heating degree days 402 378  
Growing Degree Days 2 (Base 50)    
Moisture  
Dew Point 39 °F    
Average Humidity 66    
Maximum Humidity 100    
Minimum Humidity 32    
Precipitation  
Precipitation 0.00 in 0.15 in 2.00 in (1952)
Month to date precipitation 1.48 2.55  
Year to date precipitation 43.58 47.56  
Sea Level Pressure  
Sea Level Pressure 30.14 in    
Wind  
Wind Speed 5 mph (West)    
Max Wind Speed 9 mph    
Max Gust Speed 14 mph    
Visibility 10 miles    
Events      
T = Trace of Precipitation, MM = Missing Value Source: NWS Daily Summary

Daily Weather History Graph

Daily Weather History Graph

Search for Another Location

Airport or City:

Astronomy

Nov. 20, 2019 Rise Set
Actual Time 7:12 AM EST 5:28 PM EST
Civil Twilight 6:45 AM EST 5:55 PM EST
Nautical Twilight 6:15 AM EST 6:26 PM EST
Astronomical Twilight 5:45 AM EST 6:55 PM EST
Moon 12:20 AM EST (11/20) 2:02 PM EST (11/20)
Length of Visible Light 11h 09m
Length of Day
10h 15m
Last Quarter, 41% of the Moon is Illuminated
Nov 20
Last Quarter
Nov 26
New
Dec 4
First Quarter
Dec 12
Full
Dec 18
Last Quarter

Hourly Weather History & Observations

Time (EST) Temp. Windchill Dew Point Humidity Pressure Visibility Wind Dir Wind Speed Gust Speed Precip Events Conditions
12:53 AM 48.0 °F - 41.0 °F 77% 29.96 in 10.0 mi West 9.2 mph - N/A   Clear
1:53 AM 46.0 °F 44.8 °F 41.0 °F 83% 29.98 in 10.0 mi NW 3.5 mph - N/A   Clear
2:53 AM 44.1 °F 40.1 °F 41.0 °F 89% 30.00 in 10.0 mi West 6.9 mph - N/A   Clear
3:53 AM 43.0 °F 38.2 °F 39.9 °F 89% 30.03 in 10.0 mi West 8.1 mph - N/A   Clear
4:53 AM 43.0 °F 39.5 °F 39.9 °F 89% 30.05 in 10.0 mi WNW 5.8 mph - N/A   Clear
5:53 AM 42.1 °F 39.2 °F 39.9 °F 92% 30.07 in 10.0 mi WNW 4.6 mph - N/A   Clear
6:53 AM 41.0 °F 37.1 °F 39.0 °F 93% 30.11 in 10.0 mi West 5.8 mph - N/A   Clear
7:53 AM 39.9 °F 36.7 °F 39.9 °F 100% 30.14 in 10.0 mi WSW 4.6 mph - N/A   Clear
8:53 AM 46.0 °F - 41.0 °F 83% 30.17 in 10.0 mi Calm Calm - N/A   Clear
9:53 AM 51.1 °F - 37.9 °F 61% 30.18 in 10.0 mi NNW 8.1 mph - N/A   Clear
11:53 AM 55.9 °F - 36.0 °F 47% 30.18 in 10.0 mi NNE 4.6 mph - N/A   Clear
12:53 PM 59.0 °F - 36.0 °F 42% 30.15 in 10.0 mi Variable 4.6 mph - N/A   Clear
1:53 PM 61.0 °F - 36.0 °F 39% 30.14 in 10.0 mi North - - N/A   Clear
2:53 PM 64.0 °F - 34.0 °F 33% 30.14 in 10.0 mi Variable 3.5 mph - N/A   Clear
3:53 PM 62.1 °F - 37.0 °F 39% 30.14 in 10.0 mi WSW 9.2 mph - N/A   Clear
4:53 PM 60.1 °F - 37.9 °F 44% 30.16 in 10.0 mi SW 6.9 mph - N/A   Clear
5:53 PM 55.0 °F - 39.9 °F 57% 30.18 in 10.0 mi SW 4.6 mph - N/A   Clear
6:53 PM 54.0 °F - 39.9 °F 59% 30.19 in 10.0 mi SW 4.6 mph - N/A   Clear
7:53 PM 51.1 °F - 39.9 °F 66% 30.22 in 10.0 mi WSW 3.5 mph - N/A   Clear
8:53 PM 48.0 °F - 39.9 °F 74% 30.25 in 10.0 mi SW 3.5 mph - N/A   Clear
9:53 PM 46.0 °F - 39.9 °F 79% 30.25 in 10.0 mi Calm Calm - N/A   Clear
10:53 PM 46.0 °F 43.9 °F 39.9 °F 79% 30.24 in 10.0 mi East 4.6 mph - N/A   Clear
11:53 PM 45.0 °F 43.5 °F 39.9 °F 82% 30.24 in 10.0 mi NNE 3.5 mph - N/A   Clear